OBJECT D, 62728

Orbit data source: Space-Track

You're viewing an Uncataloged Satellite

Recently launched and/or uncataloged satellites may have evolving metadata. Metadata may include but not limited to: Owner, Maufacturer, Bus, Motor, and Mission.

OBJECT D, 62728 is a satellite owned by CASC (CN) in SSO that was launched on Fri, 17 Jan 2025 UTC launched from the Jiuquan Satellite Launch Center, China (JSC). Unknown objects in Earth's orbit typically refer to objects detected orbiting the Earth but have not yet been identified or cataloged. These objects could be anything from previously untracked satellites, spent rocket stages, debris from satellite collisions, or even natural meteoroids temporarily captured by Earth's gravity.

Loading next visibility...
Identifier
62728, 2025-012D
Orbit
SSO
Country
Flag of CNCN / PRC
Related business
Manufacturer
BWYIC
Mission
Spacecraft
Bus & Motor
CZ-2 STAGE 2, Unknown motor
Mass
4,006 kg wet, 4,006 kg dry
Launch date (UTC)
2025-01-17 (1 year ago)
Launch vehicle
Unknown
Launch site
Jiuquan Satellite Launch Center, China (JSC)
Object type
Unknown
Shape & HBR
Cyl, 3.0 m
Radar Cross Section
27.824 m², Large (>1 m²)

Expand to show TLE details & history
Last TLE update: 18 hours ago

TLE from 18 hours ago
0 OBJECT D
1 62728U 25012D   26128.19471306  .00182227  00000-0  15130-2 0  9999
2 62728  97.4131 212.6594 0002437 268.5019  91.5964 15.69619603 72872
Epoch: 2026-05-08T04:40Z
TLE epoch observation values (Epoch: 2026-05-08T04:40:23.208Z)
Latitude
0.00001°
Longitude
-83.46729°
Altitude
363.189 km
Speed
7.691 km/s
True Right ascension
14h 10m 38s
True Declination
0° 00' 00"
Sunlit
Object was in full shadow at epoch
Visualization orbit readout
Latitude
Unknown
Longitude
Unknown
Altitude
Unknown
Speed
Unknown
Apparent Right ascension
Unknown
Apparent Declination
Unknown
Sunlit
N/A
Visualization observer readout
Local Sidereal Time
06:39:55
Azimuth
Unknown
Elevation
Unknown
Doppler factor
Unknown
Orbital elements
Apogee altitude
358.527 km
Perigee altitude
355.244 km
Semi-major axis
6,735.023 km
Eccentricity
0.00024
Inclination
97.4131°
RAAN
212.6594°
Arg. of periapsis
268.5019°
True anomaly
91.62431°
Mean anomaly
91.5964°
Eccentric anomaly
91.61036°
Mean motion
3.92676 °/min
Orbital period
91.68 mins
BSTAR
0.001513
Loading maneuver chart data...
Computing Atmospheric mass density...
Loading historical data...
Loading historical data...
Loading historical data...
Loading historical data...
Loading historical data...
Loading historical data...
Loading historical data...
Other satellites on launch #12 in the year 2025 (2025-01-17 UTC)

Documentation

Showing up to 5 results
|